,,PressureMeas_1m,,PRMeasQMR101_1,,RHStat155_1m_1,,SRMeasQMS101R_1m,,TAStat155_1m_1,,GenWind_1,,GenWind_1,
2018-12-04, 00:00:06,VALID,917.152,VALID,0.0,VALID,97.715,VALID,-0.015,VALID,20.772,VALID,85.0,VALID,0.0,
2018-12-04, 00:01:06,VALID,917.166,VALID,0.0,VALID,97.597,VALID,-0.027,VALID,20.789,VALID,79.0,VALID,0.0,
2018-12-04, 00:02:06,VALID,917.158,VALID,0.0,VALID,97.493,VALID,-0.017,VALID,20.79,VALID,80.0,VALID,0.0,
2018-12-04, 00:03:06,VALID,917.164,VALID,0.0,VALID,97.427,VALID,-0.022,VALID,20.795,VALID,91.0,VALID,0.0,
2018-12-04, 00:04:06,VALID,917.148,VALID,0.0,VALID,97.454,VALID,-0.017,VALID,20.814,VALID,92.0,VALID,0.0,
2018-12-04, 00:05:06,VALID,917.141,VALID,0.0,VALID,97.496,VALID,-0.034,VALID,20.829,VALID,92.0,VALID,0.0,
2018-12-04, 00:06:06,VALID,917.126,VALID,0.0,VALID,97.521,VALID,-0.028,VALID,20.845,VALID,92.0,VALID,0.0,
2018-12-04, 00:07:06,VALID,917.124,VALID,0.0,VALID,97.44,VALID,-0.012,VALID,20.843,VALID,92.0,VALID,0.0,
2018-12-04, 00:08:06,VALID,917.119,VALID,0.0,VALID,97.443,VALID,-0.029,VALID,20.864,VALID,114.0,VALID,0.0,
2018-12-04, 00:09:06,VALID,917.121,VALID,0.0,VALID,97.508,VALID,-0.018,VALID,20.868,VALID,151.0,VALID,0.0,
2018-12-04, 00:10:06,VALID,917.118,VALID,0.0,VALID,97.531,VALID,-0.016,VALID,20.851,VALID,182.0,VALID,0.0,
2018-12-04, 00:11:06,VALID,917.105,VALID,0.0,VALID,97.563,VALID,-0.013,VALID,20.829,VALID,182.0,VALID,0.0,
2018-12-04, 00:12:06,VALID,917.105,VALID,0.0,VALID,97.576,VALID,0.002,VALID,20.808,VALID,168.0,VALID,0.0,
2018-12-04, 00:13:06,VALID,917.109,VALID,0.0,VALID,97.619,VALID,0.004,VALID,20.779,VALID,78.0,VALID,0.0,
2018-12-04, 00:14:06,VALID,917.1,VALID,0.0,VALID,97.58,VALID,0.002,VALID,20.712,VALID,40.0,VALID,0.0,
2018-12-04, 00:15:06,VALID,917.104,VALID,0.0,VALID,97.698,VALID,0.004,VALID,20.654,VALID,13.0,VALID,0.0,
2018-12-04, 00:16:06,VALID,917.094,VALID,0.0,VALID,97.844,VALID,-0.002,VALID,20.616,VALID,5.0,VALID,0.0,
2018-12-04, 00:17:06,VALID,917.101,VALID,0.0,VALID,97.958,VALID,0.007,VALID,20.59,VALID,356.0,VALID,0.0,
2018-12-04, 00:18:06,VALID,917.107,VALID,0.0,VALID,98.091,VALID,-0.003,VALID,20.573,VALID,354.0,VALID,0.0,
2018-12-04, 00:19:06,VALID,917.08,VALID,0.0,VALID,98.174,VALID,0.008,VALID,20.539,VALID,357.0,VALID,0.0,
2018-12-04, 00:20:06,VALID,917.083,VALID,0.0,VALID,98.322,VALID,-0.007,VALID,20.528,VALID,13.0,VALID,0.0,
2018-12-04, 00:21:06,VALID,917.072,VALID,0.0,VALID,98.412,VALID,-0.005,VALID,20.505,VALID,28.0,VALID,0.0,
2018-12-04, 00:22:06,VALID,917.059,VALID,0.0,VALID,98.501,VALID,-0.011,VALID,20.492,VALID,26.0,VALID,0.0,
2018-12-04, 00:23:06,VALID,917.05,VALID,0.0,VALID,98.569,VALID,-0.014,VALID,20.481,VALID,31.0,VALID,0.0,
2018-12-04, 00:24:06,VALID,917.036,VALID,0.0,VALID,98.648,VALID,-0.009,VALID,20.475,VALID,35.0,VALID,0.0,
2018-12-04, 00:25:06,VALID,917.014,VALID,0.0,VALID,98.692,VALID,-0.013,VALID,20.478,VALID,48.0,VALID,0.0,
2018-12-04, 00:26:06,VALID,917.001,VALID,0.0,VALID,98.758,VALID,-0.01,VALID,20.488,VALID,56.0,VALID,0.0,
2018-12-04, 00:27:06,VALID,916.997,VALID,0.0,VALID,98.776,VALID,-0.016,VALID,20.487,VALID,70.0,VALID,0.0,
2018-12-04, 00:28:06,VALID,916.975,VALID,0.0,VALID,98.81,VALID,-0.011,VALID,20.506,VALID,80.0,VALID,0.0,
2018-12-04, 00:29:06,VALID,916.981,VALID,0.0,VALID,98.761,VALID,-0.018,VALID,20.502,VALID,96.0,VALID,0.0,
2018-12-04, 00:30:06,VALID,916.958,VALID,0.0,VALID,98.684,VALID,-0.012,VALID,20.48,VALID,100.0,VALID,0.0,
2018-12-04, 00:31:06,VALID,916.957,VALID,0.0,VALID,98.669,VALID,-0.006,VALID,20.485,VALID,99.0,VALID,0.0,
2018-12-04, 00:32:06,VALID,916.933,VALID,0.0,VALID,98.611,VALID,0.017,VALID,20.514,VALID,100.0,VALID,0.0,
2018-12-04, 00:33:06,VALID,916.92,VALID,0.0,VALID,98.539,VALID,-0.018,VALID,20.538,VALID,101.0,VALID,0.0,
2018-12-04, 00:34:06,VALID,916.912,VALID,0.0,VALID,98.44,VALID,-0.019,VALID,20.552,VALID,108.0,VALID,0.0,
2018-12-04, 00:35:06,VALID,916.889,VALID,0.0,VALID,98.45,VALID,0.007,VALID,20.575,VALID,104.0,VALID,0.0,
2018-12-04, 00:36:06,VALID,916.908,VALID,0.0,VALID,98.511,VALID,0.001,VALID,20.604,VALID,101.0,VALID,0.0,
2018-12-04, 00:37:06,VALID,916.886,VALID,0.0,VALID,98.52,VALID,0.01,VALID,20.606,VALID,100.0,VALID,0.0,
2018-12-04, 00:38:06,VALID,916.885,VALID,0.0,VALID,98.542,VALID,0.005,VALID,20.596,VALID,98.0,VALID,0.0,
2018-12-04, 00:39:06,VALID,916.852,VALID,0.0,VALID,98.479,VALID,-0.005,VALID,20.589,VALID,97.0,VALID,0.0,
2018-12-04, 00:40:06,VALID,916.85,VALID,0.0,VALID,98.355,VALID,0.005,VALID,20.596,VALID,94.0,VALID,0.0,
2018-12-04, 00:41:06,VALID,916.84,VALID,0.0,VALID,98.248,VALID,0.008,VALID,20.623,VALID,93.0,VALID,0.0,
2018-12-04, 00:42:06,VALID,916.824,VALID,0.0,VALID,98.127,VALID,0.011,VALID,20.651,VALID,96.0,VALID,0.0,
2018-12-04, 00:43:06,VALID,916.82,VALID,0.0,VALID,98.036,VALID,0.001,VALID,20.669,VALID,99.0,VALID,0.0,
2018-12-04, 00:44:06,VALID,916.806,VALID,0.0,VALID,97.96,VALID,0.007,VALID,20.684,VALID,100.0,VALID,0.0,
2018-12-04, 00:45:06,VALID,916.801,VALID,0.0,VALID,97.98,VALID,0.006,VALID,20.708,VALID,108.0,VALID,0.0,
2018-12-04, 00:46:06,VALID,916.794,VALID,0.0,VALID,97.961,VALID,0.0,VALID,20.731,VALID,102.0,VALID,0.0,
2018-12-04, 00:47:06,VALID,916.788,VALID,0.0,VALID,97.916,VALID,0.013,VALID,20.749,VALID,103.0,VALID,0.0,
2018-12-04, 00:48:06,VALID,916.802,VALID,0.0,VALID,97.865,VALID,0.02,VALID,20.765,VALID,92.0,VALID,0.0,
2018-12-04, 00:49:06,VALID,916.79,VALID,0.0,VALID,97.808,VALID,0.001,VALID,20.772,VALID,75.0,VALID,0.0,
2018-12-04, 00:50:06,VALID,916.8,VALID,0.0,VALID,97.759,VALID,0.007,VALID,20.772,VALID,70.0,VALID,0.0,
2018-12-04, 00:51:06,VALID,916.794,VALID,0.0,VALID,97.675,VALID,0.013,VALID,20.767,VALID,73.0,VALID,0.0,
2018-12-04, 00:52:06,VALID,916.777,VALID,0.0,VALID,97.599,VALID,0.011,VALID,20.79,VALID,77.0,VALID,0.0,
2018-12-04, 00:53:06,VALID,916.759,VALID,0.0,VALID,97.423,VALID,0.017,VALID,20.825,VALID,86.0,VALID,0.0,
2018-12-04, 00:54:06,VALID,916.741,VALID,0.0,VALID,97.293,VALID,0.013,VALID,20.851,VALID,84.0,VALID,0.0,
2018-12-04, 00:55:06,VALID,916.724,VALID,0.0,VALID,97.2,VALID,0.017,VALID,20.873,VALID,83.0,VALID,0.0,
2018-12-04, 00:56:06,VALID,916.701,VALID,0.0,VALID,97.151,VALID,0.001,VALID,20.894,VALID,82.0,VALID,0.0,
2018-12-04, 00:57:06,VALID,916.71,VALID,0.0,VALID,97.117,VALID,-0.011,VALID,20.908,VALID,82.0,VALID,0.0,
2018-12-04, 00:58:06,VALID,916.697,VALID,0.0,VALID,97.073,VALID,-0.008,VALID,20.905,VALID,82.0,VALID,0.0,
2018-12-04, 00:59:06,VALID,916.677,VALID,0.0,VALID,97.107,VALID,0.013,VALID,20.908,VALID,82.0,VALID,0.0,
2018-12-04, 01:00:06,VALID,916.65,VALID,0.0,VALID,97.11,VALID,-0.006,VALID,20.911,VALID,82.0,VALID,0.0,
2018-12-04, 01:01:06,VALID,916.64,VALID,0.0,VALID,97.146,VALID,-0.012,VALID,20.92,VALID,82.0,VALID,0.0,
2018-12-04, 01:02:06,VALID,916.632,VALID,0.0,VALID,97.232,VALID,0.004,VALID,20.932,VALID,82.0,VALID,0.0,
2018-12-04, 01:03:06,VALID,916.61,VALID,0.0,VALID,97.37,VALID,-0.009,VALID,20.949,VALID,82.0,VALID,0.0,
2018-12-04, 01:04:06,VALID,916.61,VALID,0.0,VALID,97.535,VALID,-0.003,VALID,20.964,VALID,80.0,VALID,0.0,
2018-12-04, 01:05:06,VALID,916.589,VALID,0.0,VALID,97.589,VALID,-0.014,VALID,20.956,VALID,77.0,VALID,0.0,
2018-12-04, 01:06:06,VALID,916.558,VALID,0.0,VALID,97.621,VALID,-0.003,VALID,20.947,VALID,77.0,VALID,0.0,
2018-12-04, 01:07:06,VALID,916.55,VALID,0.0,VALID,97.739,VALID,-0.018,VALID,20.952,VALID,77.0,VALID,0.0,
2018-12-04, 01:08:06,VALID,916.519,VALID,0.0,VALID,97.732,VALID,-0.002,VALID,20.934,VALID,77.0,VALID,0.0,
2018-12-04, 01:09:06,VALID,916.499,VALID,0.0,VALID,97.717,VALID,-0.003,VALID,20.897,VALID,77.0,VALID,0.0,
2018-12-04, 01:10:06,VALID,916.489,VALID,0.0,VALID,97.8,VALID,-0.009,VALID,20.887,VALID,65.0,VALID,0.0,
2018-12-04, 01:11:06,VALID,916.494,VALID,0.0,VALID,97.774,VALID,-0.011,VALID,20.836,VALID,60.0,VALID,0.0,
2018-12-04, 01:12:06,VALID,916.478,VALID,0.0,VALID,97.76,VALID,-0.013,VALID,20.779,VALID,61.0,VALID,0.0,
2018-12-04, 01:13:06,VALID,916.455,VALID,0.0,VALID,97.765,VALID,-0.009,VALID,20.749,VALID,71.0,VALID,0.0,
2018-12-04, 01:14:06,VALID,916.437,VALID,0.0,VALID,97.798,VALID,0.003,VALID,20.742,VALID,85.0,VALID,0.0,
2018-12-04, 01:15:06,VALID,916.408,VALID,0.0,VALID,97.771,VALID,-0.001,VALID,20.751,VALID,89.0,VALID,0.0,
2018-12-04, 01:16:06,VALID,916.392,VALID,0.0,VALID,97.708,VALID,0.009,VALID,20.757,VALID,99.0,VALID,0.0,
2018-12-04, 01:17:06,VALID,916.372,VALID,0.0,VALID,97.745,VALID,-0.01,VALID,20.769,VALID,106.0,VALID,0.0,
2018-12-04, 01:18:06,VALID,916.367,VALID,0.0,VALID,97.852,VALID,-0.005,VALID,20.769,VALID,105.0,VALID,0.0,
2018-12-04, 01:19:06,VALID,916.341,VALID,0.0,VALID,97.824,VALID,-0.001,VALID,20.743,VALID,99.0,VALID,0.0,
2018-12-04, 01:20:06,VALID,916.324,VALID,0.0,VALID,97.814,VALID,-0.001,VALID,20.714,VALID,106.0,VALID,0.0,
2018-12-04, 01:21:06,VALID,916.309,VALID,0.0,VALID,97.819,VALID,-0.01,VALID,20.692,VALID,110.0,VALID,0.0,
2018-12-04, 01:22:06,VALID,916.311,VALID,0.0,VALID,97.896,VALID,0.001,VALID,20.677,VALID,111.0,VALID,0.0,
2018-12-04, 01:23:06,VALID,916.283,VALID,0.0,VALID,97.971,VALID,-0.006,VALID,20.655,VALID,111.0,VALID,0.0,
2018-12-04, 01:24:06,VALID,916.268,VALID,0.0,VALID,98.071,VALID,-0.017,VALID,20.668,VALID,116.0,VALID,0.0,
2018-12-04, 01:25:06,VALID,916.261,VALID,0.0,VALID,98.122,VALID,-0.021,VALID,20.672,VALID,116.0,VALID,0.0,
2018-12-04, 01:26:06,VALID,916.264,VALID,0.0,VALID,98.115,VALID,-0.007,VALID,20.665,VALID,117.0,VALID,0.0,
2018-12-04, 01:27:06,VALID,916.252,VALID,0.0,VALID,98.067,VALID,-0.003,VALID,20.65,VALID,115.0,VALID,0.0,
2018-12-04, 01:28:06,VALID,916.242,VALID,0.0,VALID,98.023,VALID,0.005,VALID,20.646,VALID,114.0,VALID,0.0,
2018-12-04, 01:29:06,VALID,916.22,VALID,0.0,VALID,97.969,VALID,0.004,VALID,20.648,VALID,117.0,VALID,0.0,
2018-12-04, 01:30:06,VALID,916.199,VALID,0.0,VALID,97.855,VALID,0.009,VALID,20.638,VALID,120.0,VALID,0.0,
2018-12-04, 01:31:06,VALID,916.214,VALID,0.0,VALID,97.9,VALID,0.003,VALID,20.656,VALID,121.0,VALID,0.0,
2018-12-04, 01:32:06,VALID,916.193,VALID,0.0,VALID,97.872,VALID,-0.0,VALID,20.678,VALID,122.0,VALID,0.0,
2018-12-04, 01:33:06,VALID,916.167,VALID,0.0,VALID,97.828,VALID,0.012,VALID,20.691,VALID,118.0,VALID,0.0,
2018-12-04, 01:34:06,VALID,916.162,VALID,0.0,VALID,97.757,VALID,0.005,VALID,20.672,VALID,106.0,VALID,0.0,
2018-12-04, 01:35:06,VALID,916.13,VALID,0.0,VALID,97.688,VALID,-0.007,VALID,20.643,VALID,102.0,VALID,0.0,
2018-12-04, 01:36:06,VALID,916.092,VALID,0.0,VALID,97.619,VALID,0.007,VALID,20.61,VALID,94.0,VALID,0.0,
2018-12-04, 01:37:06,VALID,916.068,VALID,0.0,VALID,97.579,VALID,0.018,VALID,20.585,VALID,85.0,VALID,0.0,
2018-12-04, 01:38:06,VALID,916.052,VALID,0.0,VALID,97.641,VALID,0.01,VALID,20.577,VALID,84.0,VALID,0.0,
2018-12-04, 01:39:06,VALID,916.024,VALID,0.0,VALID,97.619,VALID,0.008,VALID,20.567,VALID,81.0,VALID,0.0,
2018-12-04, 01:40:06,VALID,916.027,VALID,0.0,VALID,97.572,VALID,-0.01,VALID,20.55,VALID,81.0,VALID,0.0,
2018-12-04, 01:41:06,VALID,916.013,VALID,0.0,VALID,97.558,VALID,-0.017,VALID,20.568,VALID,78.0,VALID,0.0,
2018-12-04, 01:42:06,VALID,916.012,VALID,0.0,VALID,97.47,VALID,-0.013,VALID,20.573,VALID,83.0,VALID,0.0,
2018-12-04, 01:43:06,VALID,915.995,VALID,0.0,VALID,97.324,VALID,-0.011,VALID,20.57,VALID,85.0,VALID,0.0,
2018-12-04, 01:44:06,VALID,916.003,VALID,0.0,VALID,97.189,VALID,-0.008,VALID,20.55,VALID,88.0,VALID,0.0,
2018-12-04, 01:45:06,VALID,916.003,VALID,0.0,VALID,97.198,VALID,-0.026,VALID,20.543,VALID,95.0,VALID,0.0,
2018-12-04, 01:46:06,VALID,915.963,VALID,0.0,VALID,97.129,VALID,0.001,VALID,20.508,VALID,103.0,VALID,0.0,
2018-12-04, 01:47:06,VALID,915.968,VALID,0.0,VALID,97.192,VALID,-0.028,VALID,20.506,VALID,131.0,VALID,0.0,
2018-12-04, 01:48:06,VALID,915.939,VALID,0.0,VALID,97.391,VALID,-0.007,VALID,20.53,VALID,139.0,VALID,0.0,
2018-12-04, 01:49:06,VALID,915.934,VALID,0.0,VALID,97.495,VALID,-0.014,VALID,20.532,VALID,135.0,VALID,0.0,
2018-12-04, 01:50:06,VALID,915.923,VALID,0.0,VALID,97.573,VALID,-0.025,VALID,20.547,VALID,135.0,VALID,0.0,
2018-12-04, 01:51:06,VALID,915.917,VALID,0.0,VALID,97.662,VALID,-0.008,VALID,20.577,VALID,125.0,VALID,0.0,
2018-12-04, 01:52:06,VALID,915.907,VALID,0.0,VALID,97.532,VALID,-0.01,VALID,20.546,VALID,107.0,VALID,0.0,
2018-12-04, 01:53:06,VALID,915.878,VALID,0.0,VALID,97.222,VALID,-0.009,VALID,20.457,VALID,108.0,VALID,0.0,
2018-12-04, 01:54:06,VALID,915.856,VALID,0.0,VALID,97.106,VALID,-0.019,VALID,20.393,VALID,112.0,VALID,0.0,
2018-12-04, 01:55:06,VALID,915.835,VALID,0.0,VALID,97.167,VALID,-0.015,VALID,20.359,VALID,116.0,VALID,0.0,
2018-12-04, 01:56:06,VALID,915.801,VALID,0.0,VALID,97.432,VALID,-0.04,VALID,20.381,VALID,146.0,VALID,0.0,
2018-12-04, 01:57:06,VALID,915.797,VALID,0.0,VALID,97.77,VALID,-0.028,VALID,20.457,VALID,143.0,VALID,0.0,
2018-12-04, 01:58:06,VALID,915.769,VALID,0.0,VALID,97.766,VALID,-0.026,VALID,20.507,VALID,169.0,VALID,0.0,
2018-12-04, 01:59:06,VALID,915.782,VALID,0.0,VALID,97.682,VALID,-0.037,VALID,20.57,VALID,172.0,VALID,0.0,
2018-12-04, 02:00:06,VALID,915.77,VALID,0.0,VALID,97.484,VALID,-0.033,VALID,20.653,VALID,152.0,VALID,0.0,
2018-12-04, 02:01:06,VALID,915.779,VALID,0.0,VALID,97.075,VALID,-0.028,VALID,20.687,VALID,139.0,VALID,0.0,
2018-12-04, 02:02:06,VALID,915.779,VALID,0.0,VALID,96.709,VALID,-0.016,VALID,20.694,VALID,145.0,VALID,0.0,
2018-12-04, 02:03:06,VALID,915.797,VALID,0.0,VALID,96.55,VALID,-0.007,VALID,20.72,VALID,140.0,VALID,0.0,
2018-12-04, 02:04:06,VALID,915.799,VALID,0.0,VALID,96.507,VALID,-0.016,VALID,20.756,VALID,156.0,VALID,0.0,
2018-12-04, 02:05:06,VALID,915.781,VALID,0.0,VALID,96.484,VALID,-0.024,VALID,20.759,VALID,164.0,VALID,0.0,
2018-12-04, 02:06:06,VALID,915.798,VALID,0.0,VALID,96.54,VALID,-0.023,VALID,20.754,VALID,132.0,VALID,0.0,
2018-12-04, 02:07:06,VALID,915.81,VALID,0.0,VALID,96.483,VALID,-0.018,VALID,20.747,VALID,165.0,VALID,0.0,
2018-12-04, 02:08:06,VALID,915.799,VALID,0.0,VALID,96.59,VALID,-0.036,VALID,20.753,VALID,157.0,VALID,0.0,
2018-12-04, 02:09:06,VALID,915.799,VALID,0.0,VALID,96.687,VALID,-0.028,VALID,20.732,VALID,177.0,VALID,0.0,
2018-12-04, 02:10:06,VALID,915.796,VALID,0.0,VALID,96.869,VALID,-0.012,VALID,20.738,VALID,171.0,VALID,0.0,
2018-12-04, 02:11:06,VALID,915.803,VALID,0.0,VALID,96.886,VALID,-0.015,VALID,20.746,VALID,166.0,VALID,0.0,
2018-12-04, 02:12:06,VALID,915.809,VALID,0.0,VALID,96.837,VALID,-0.009,VALID,20.747,VALID,172.0,VALID,0.0,
2018-12-04, 02:13:06,VALID,915.8,VALID,0.0,VALID,96.754,VALID,-0.027,VALID,20.757,VALID,162.0,VALID,0.0,
2018-12-04, 02:14:06,VALID,915.818,VALID,0.0,VALID,96.631,VALID,-0.001,VALID,20.76,VALID,249.0,VALID,0.0,
2018-12-04, 02:15:06,VALID,915.821,VALID,0.0,VALID,96.468,VALID,-0.001,VALID,20.736,VALID,263.0,VALID,0.0,
2018-12-04, 02:16:06,VALID,915.812,VALID,0.0,VALID,96.391,VALID,-0.008,VALID,20.676,VALID,266.0,VALID,0.0,
2018-12-04, 02:17:06,VALID,915.833,VALID,0.0,VALID,96.143,VALID,-0.008,VALID,20.557,VALID,266.0,VALID,0.0,
2018-12-04, 02:18:06,VALID,915.818,VALID,0.0,VALID,96.099,VALID,-0.017,VALID,20.422,VALID,306.0,VALID,0.0,
2018-12-04, 02:19:06,VALID,915.82,VALID,0.0,VALID,96.395,VALID,-0.004,VALID,20.303,VALID,12.0,VALID,0.0,
2018-12-04, 02:20:06,VALID,915.815,VALID,0.0,VALID,96.881,VALID,-0.007,VALID,20.244,VALID,24.0,VALID,0.0,
2018-12-04, 02:21:06,VALID,915.8,VALID,0.0,VALID,97.443,VALID,-0.005,VALID,20.271,VALID,26.0,VALID,0.0,
2018-12-04, 02:22:06,VALID,915.762,VALID,0.0,VALID,97.827,VALID,-0.007,VALID,20.33,VALID,26.0,VALID,0.0,
2018-12-04, 02:23:06,VALID,915.744,VALID,0.0,VALID,98.043,VALID,-0.003,VALID,20.404,VALID,51.0,VALID,0.0,
2018-12-04, 02:24:06,VALID,915.706,VALID,0.0,VALID,98.024,VALID,-0.006,VALID,20.433,VALID,105.0,VALID,0.0,
2018-12-04, 02:25:06,VALID,915.672,VALID,0.0,VALID,97.937,VALID,-0.012,VALID,20.46,VALID,105.0,VALID,0.0,
2018-12-04, 02:26:06,VALID,915.643,VALID,0.0,VALID,97.723,VALID,-0.011,VALID,20.478,VALID,105.0,VALID,0.0,
2018-12-04, 02:27:06,VALID,915.625,VALID,0.0,VALID,97.498,VALID,0.001,VALID,20.474,VALID,93.0,VALID,0.0,
2018-12-04, 02:28:06,VALID,915.64,VALID,0.0,VALID,96.79,VALID,-0.029,VALID,20.348,VALID,67.0,VALID,0.0,
2018-12-04, 02:29:06,VALID,915.639,VALID,0.0,VALID,96.604,VALID,-0.025,VALID,20.243,VALID,45.0,VALID,0.0,
2018-12-04, 02:30:06,VALID,915.654,VALID,0.0,VALID,96.621,VALID,-0.024,VALID,20.147,VALID,19.0,VALID,0.0,
2018-12-04, 02:31:06,VALID,915.666,VALID,0.0,VALID,96.662,VALID,0.002,VALID,20.071,VALID,349.0,VALID,0.0,
2018-12-04, 02:32:06,VALID,915.672,VALID,0.0,VALID,97.111,VALID,-0.027,VALID,20.078,VALID,339.0,VALID,0.0,
2018-12-04, 02:33:06,VALID,915.697,VALID,0.0,VALID,97.476,VALID,-0.026,VALID,20.089,VALID,335.0,VALID,0.0,
2018-12-04, 02:34:06,VALID,915.705,VALID,0.0,VALID,97.696,VALID,-0.007,VALID,20.081,VALID,320.0,VALID,0.0,
2018-12-04, 02:35:06,VALID,915.717,VALID,0.0,VALID,97.896,VALID,-0.008,VALID,20.078,VALID,329.0,VALID,0.0,
2018-12-04, 02:36:06,VALID,915.717,VALID,0.0,VALID,98.093,VALID,-0.026,VALID,20.072,VALID,339.0,VALID,0.0,
2018-12-04, 02:37:06,VALID,915.718,VALID,0.0,VALID,98.221,VALID,-0.014,VALID,20.045,VALID,345.0,VALID,0.0,
2018-12-04, 02:38:06,VALID,915.721,VALID,0.0,VALID,98.311,VALID,-0.025,VALID,20.004,VALID,339.0,VALID,0.0,
2018-12-04, 02:39:06,VALID,915.713,VALID,0.0,VALID,98.339,VALID,-0.005,VALID,19.942,VALID,1.0,VALID,0.0,
2018-12-04, 02:40:06,VALID,915.713,VALID,0.0,VALID,98.474,VALID,0.0,VALID,19.937,VALID,350.0,VALID,0.0,
2018-12-04, 02:41:06,VALID,915.701,VALID,0.0,VALID,98.557,VALID,0.003,VALID,19.933,VALID,345.0,VALID,0.0,
2018-12-04, 02:42:06,VALID,915.701,VALID,0.0,VALID,98.654,VALID,0.009,VALID,19.934,VALID,348.0,VALID,0.0,
2018-12-04, 02:43:06,VALID,915.666,VALID,0.0,VALID,98.696,VALID,0.023,VALID,19.94,VALID,336.0,VALID,0.0,
2018-12-04, 02:44:06,VALID,915.67,VALID,0.0,VALID,98.77,VALID,0.002,VALID,19.947,VALID,336.0,VALID,0.0,
2018-12-04, 02:45:06,VALID,915.659,VALID,0.0,VALID,98.792,VALID,-0.003,VALID,19.947,VALID,336.0,VALID,0.0,
2018-12-04, 02:46:06,VALID,915.652,VALID,0.0,VALID,98.822,VALID,0.007,VALID,19.929,VALID,336.0,VALID,0.0,
2018-12-04, 02:47:06,VALID,915.654,VALID,0.0,VALID,98.81,VALID,0.011,VALID,19.897,VALID,336.0,VALID,0.0,
2018-12-04, 02:48:06,VALID,915.642,VALID,0.0,VALID,98.836,VALID,0.007,VALID,19.864,VALID,336.0,VALID,0.0,
2018-12-04, 02:49:06,VALID,915.618,VALID,0.0,VALID,98.864,VALID,-0.009,VALID,19.856,VALID,336.0,VALID,0.0,
2018-12-04, 02:50:06,VALID,915.622,VALID,0.0,VALID,98.89,VALID,-0.001,VALID,19.838,VALID,16.0,VALID,0.0,
2018-12-04, 02:51:06,VALID,915.634,VALID,0.0,VALID,98.834,VALID,0.009,VALID,19.751,VALID,53.0,VALID,0.0,
2018-12-04, 02:52:06,VALID,915.625,VALID,0.0,VALID,98.844,VALID,0.006,VALID,19.688,VALID,77.0,VALID,0.0,
2018-12-04, 02:53:06,VALID,915.63,VALID,0.0,VALID,98.874,VALID,0.007,VALID,19.665,VALID,103.0,VALID,0.0,
2018-12-04, 02:54:06,VALID,915.62,VALID,0.0,VALID,98.886,VALID,0.004,VALID,19.648,VALID,112.0,VALID,0.0,
2018-12-04, 02:55:06,VALID,915.616,VALID,0.0,VALID,98.9,VALID,-0.003,VALID,19.641,VALID,113.0,VALID,0.0,
2018-12-04, 02:56:06,VALID,915.598,VALID,0.0,VALID,98.924,VALID,0.013,VALID,19.638,VALID,113.0,VALID,0.0,
2018-12-04, 02:57:06,VALID,915.591,VALID,0.0,VALID,98.957,VALID,0.007,VALID,19.68,VALID,113.0,VALID,0.0,
2018-12-04, 02:58:06,VALID,915.579,VALID,0.0,VALID,98.977,VALID,0.01,VALID,19.694,VALID,113.0,VALID,0.0,
2018-12-04, 02:59:06,VALID,915.568,VALID,0.0,VALID,98.999,VALID,0.018,VALID,19.71,VALID,113.0,VALID,0.0,
2018-12-04, 03:00:06,VALID,915.557,VALID,0.0,VALID,99.051,VALID,0.015,VALID,19.763,VALID,113.0,VALID,0.0,
2018-12-04, 03:01:06,VALID,915.561,VALID,0.0,VALID,99.094,VALID,0.001,VALID,19.815,VALID,213.0,VALID,0.0,
2018-12-04, 03:02:06,VALID,915.542,VALID,0.0,VALID,99.106,VALID,-0.003,VALID,19.857,VALID,255.0,VALID,0.0,
2018-12-04, 03:03:06,VALID,915.518,VALID,0.0,VALID,99.092,VALID,0.003,VALID,19.877,VALID,253.0,VALID,0.0,
2018-12-04, 03:04:06,VALID,915.513,VALID,0.0,VALID,99.121,VALID,0.021,VALID,19.92,VALID,253.0,VALID,0.0,
2018-12-04, 03:05:06,VALID,915.495,VALID,0.0,VALID,99.148,VALID,0.028,VALID,19.95,VALID,248.0,VALID,0.0,
2018-12-04, 03:06:06,VALID,915.486,VALID,0.0,VALID,99.155,VALID,0.03,VALID,19.964,VALID,245.0,VALID,0.0,
2018-12-04, 03:07:06,VALID,915.472,VALID,0.0,VALID,99.138,VALID,0.008,VALID,19.968,VALID,245.0,VALID,0.0,
2018-12-04, 03:08:06,VALID,915.483,VALID,0.0,VALID,99.139,VALID,0.014,VALID,19.962,VALID,245.0,VALID,0.0,
2018-12-04, 03:09:06,VALID,915.457,VALID,0.0,VALID,99.131,VALID,0.003,VALID,19.934,VALID,246.0,VALID,0.0,
2018-12-04, 03:10:07,VALID,915.442,VALID,0.0,VALID,99.144,VALID,0.001,VALID,19.943,VALID,246.0,VALID,0.0,
2018-12-04, 03:11:07,VALID,915.42,VALID,0.0,VALID,99.148,VALID,-0.002,VALID,19.955,VALID,246.0,VALID,0.0,
2018-12-04, 03:12:07,VALID,915.414,VALID,0.0,VALID,99.141,VALID,-0.004,VALID,19.946,VALID,246.0,VALID,0.0,
2018-12-04, 03:13:07,VALID,915.389,VALID,0.0,VALID,99.142,VALID,0.008,VALID,19.919,VALID,246.0,VALID,0.0,
2018-12-04, 03:14:07,VALID,915.377,VALID,0.0,VALID,99.087,VALID,0.01,VALID,19.849,VALID,248.0,VALID,0.0,
2018-12-04, 03:15:07,VALID,915.386,VALID,0.0,VALID,98.973,VALID,0.003,VALID,19.663,VALID,33.0,VALID,0.0,
2018-12-04, 03:16:07,VALID,915.387,VALID,0.0,VALID,98.938,VALID,0.009,VALID,19.519,VALID,33.0,VALID,0.0,
2018-12-04, 03:17:07,VALID,915.386,VALID,0.0,VALID,99.06,VALID,-0.019,VALID,19.506,VALID,14.0,VALID,0.0,
2018-12-04, 03:18:07,VALID,915.383,VALID,0.0,VALID,99.051,VALID,0.019,VALID,19.467,VALID,344.0,VALID,0.0,
2018-12-04, 03:19:07,VALID,915.376,VALID,0.0,VALID,99.162,VALID,0.013,VALID,19.575,VALID,310.0,VALID,0.0,
2018-12-04, 03:20:07,VALID,915.367,VALID,0.0,VALID,99.249,VALID,0.012,VALID,19.808,VALID,274.0,VALID,0.0,
2018-12-04, 03:21:07,VALID,915.33,VALID,0.0,VALID,99.261,VALID,-0.004,VALID,19.931,VALID,244.0,VALID,0.0,
2018-12-04, 03:22:07,VALID,915.333,VALID,0.0,VALID,99.266,VALID,-0.002,VALID,19.995,VALID,222.0,VALID,0.0,
2018-12-04, 03:23:07,VALID,915.335,VALID,0.0,VALID,99.268,VALID,0.02,VALID,20.015,VALID,202.0,VALID,0.0,
2018-12-04, 03:24:07,VALID,915.34,VALID,0.0,VALID,99.252,VALID,0.013,VALID,20.033,VALID,225.0,VALID,0.0,
2018-12-04, 03:25:07,VALID,915.35,VALID,0.0,VALID,99.252,VALID,0.0,VALID,20.035,VALID,208.0,VALID,0.0,
2018-12-04, 03:26:07,VALID,915.379,VALID,0.0,VALID,99.245,VALID,-0.003,VALID,20.009,VALID,177.0,VALID,0.0,
2018-12-04, 03:27:07,VALID,915.395,VALID,0.0,VALID,99.228,VALID,0.016,VALID,19.978,VALID,177.0,VALID,0.0,
2018-12-04, 03:28:07,VALID,915.414,VALID,0.0,VALID,99.206,VALID,0.007,VALID,19.985,VALID,178.0,VALID,0.0,
2018-12-04, 03:29:07,VALID,915.408,VALID,0.0,VALID,99.236,VALID,0.02,VALID,20.012,VALID,188.0,VALID,0.0,
2018-12-04, 03:30:07,VALID,915.424,VALID,0.0,VALID,99.246,VALID,-0.001,VALID,20.033,VALID,178.0,VALID,0.0,
2018-12-04, 03:31:07,VALID,915.406,VALID,0.0,VALID,99.215,VALID,0.016,VALID,19.996,VALID,94.0,VALID,0.0,
2018-12-04, 03:32:07,VALID,915.392,VALID,0.0,VALID,99.211,VALID,0.002,VALID,19.952,VALID,91.0,VALID,0.0,
2018-12-04, 03:33:07,VALID,915.371,VALID,0.0,VALID,99.22,VALID,0.006,VALID,19.926,VALID,90.0,VALID,0.0,
2018-12-04, 03:34:07,VALID,915.346,VALID,0.0,VALID,99.19,VALID,0.009,VALID,19.895,VALID,48.0,VALID,0.0,
2018-12-04, 03:35:07,VALID,915.323,VALID,0.0,VALID,99.238,VALID,-0.001,VALID,19.917,VALID,33.0,VALID,0.0,
2018-12-04, 03:36:07,VALID,915.323,VALID,0.0,VALID,99.255,VALID,0.015,VALID,19.935,VALID,31.0,VALID,0.0,
2018-12-04, 03:37:07,VALID,915.301,VALID,0.0,VALID,99.245,VALID,0.026,VALID,19.933,VALID,31.0,VALID,0.0,
2018-12-04, 03:38:07,VALID,915.285,VALID,0.0,VALID,99.251,VALID,0.002,VALID,19.941,VALID,31.0,VALID,0.0,
2018-12-04, 03:39:07,VALID,915.289,VALID,0.0,VALID,99.269,VALID,0.009,VALID,19.955,VALID,31.0,VALID,0.0,
2018-12-04, 03:40:07,VALID,915.279,VALID,0.0,VALID,99.254,VALID,-0.002,VALID,19.966,VALID,31.0,VALID,0.0,
2018-12-04, 03:41:07,VALID,915.272,VALID,0.0,VALID,99.263,VALID,-0.022,VALID,19.967,VALID,31.0,VALID,0.0,
2018-12-04, 03:42:07,VALID,915.261,VALID,0.0,VALID,99.256,VALID,-0.02,VALID,19.981,VALID,31.0,VALID,0.0,
2018-12-04, 03:43:07,VALID,915.273,VALID,0.0,VALID,99.282,VALID,-0.01,VALID,20.006,VALID,101.0,VALID,0.0,